Flag for U.S.A. Weather past 2 weeks in Denver, Colorado, U.S.A.

Now
66 °F

Scattered clouds.


Feels Like: 66 °F
Forecast: 49 / 71 °F
Wind: 5 mph from South

Location: Buckley Air Force Base

Current Time: Mar 31, 2015 at 9:33:05 PM

Latest Report: Mar 31, 2015 at 7:58 PM


Visibility: 10 mi

Pressure: 29.70 "Hg

Humidity: 15%

Dew point: 17 °F

Location of DenverLocation

Historic Weather in Denver — Graph

°F

Denver temperature yesterday

Maximum temperature yesterday: 72 °F (at 3:58 PM)
Minimum temperature yesterday: 41 °F (at 5:58 AM)
Average temperature yesterday: 57 °F

Past Weeks' High & Low Weather Summary

 TemperatureHumidityPressure
High76 °F (Mar 28, 2:58 PM)100% (Mar 19, 12:58 AM)30.31 "Hg (Mar 19, 12:58 AM)
Low31 °F (Mar 25, 11:58 PM)8% (Mar 31, 3:58 PM)29.58 "Hg (Mar 25, 10:58 AM)
Average50 °F46%29.99 "Hg
* Reported Mar 16 7:58 PM — Mar 31 7:58 PM, Denver, Weather by CustomWeather, © 2015

Note: Actual official high and low records may vary slightly from our data, if they occured in-between our weather recording intervals... More about our weather records

Advertising

Denver weather history for previous 24 hours

 ConditionsComfort  
Time TempWeatherWind HumidityBarometerVisibility
7:58 PM
Tue, Mar 31
66 °FScattered clouds.5 mph15%29.70 "Hg10 mi
6:58 PM68 °FScattered clouds.5 mph18%29.70 "Hg10 mi
5:58 PM74 °FBroken clouds.6 mph12%29.72 "Hg10 mi
4:58 PM75 °FScattered clouds.3 mph8%29.72 "Hg10 mi
3:58 PM76 °FScattered clouds.3 mph8%29.74 "Hg10 mi
2:58 PM74 °FScattered clouds.2 mph9%29.78 "Hg10 mi
1:58 PM73 °FPassing clouds.6 mph10%29.81 "Hg10 mi
12:58 PM72 °FPassing clouds.7 mph12%29.85 "Hg10 mi
11:58 AM70 °FPassing clouds.1 mph13%29.87 "Hg10 mi
10:58 AM68 °FPassing clouds.8 mph15%29.90 "Hg10 mi
9:58 AM63 °FPassing clouds.8 mph20%29.93 "Hg10 mi
8:58 AM57 °FSunny.12 mph24%29.94 "Hg10 mi
7:58 AM49 °FSunny.7 mph35%29.96 "Hg10 mi
6:58 AM44 °FPassing clouds.12 mph38%29.96 "Hg10 mi
5:58 AM45 °FClear.12 mph37%29.94 "Hg10 mi
4:58 AM45 °FPassing clouds.9 mph38%29.94 "Hg10 mi
3:58 AM45 °FPassing clouds.10 mph37%29.94 "Hg10 mi
2:58 AM44 °FPassing clouds.9 mph41%29.95 "Hg10 mi
1:58 AM45 °FPassing clouds.9 mph41%29.97 "Hg10 mi
12:58 AM47 °FPassing clouds.7 mph37%29.98 "Hg10 mi
11:58 PM
Mon, Mar 30
49 °FPassing clouds.8 mph33%29.98 "Hg10 mi
10:58 PM54 °FPassing clouds.6 mph28%29.98 "Hg10 mi
9:58 PM52 °FPassing clouds.3 mph33%30.02 "Hg10 mi
Weather by CustomWeather, © 2015

See weather overviewHow to use our weather pages